Погода в Джизане

Саудовская Аравия     17°19′15″N   42°39′50″E
темп.,
°C
ветер,
м/с
пор.,
м/с
влажн.,
%
обл.,
%
осадки,
мм/ч
давл.,
гПа
погр.,
м
12 августа, пт
пт1200:00+31з227099 0.0 1003346
03:00+30ююв4575100 0.4 1003325
06:00+30юз127499 0.3 1004211
09:00+32ююв326012 1.9 1006784
12:00+35зсз335093 0.0 10041504
15:00+33зсз995791 0.3 10031135
18:00+33зсз7755100 1.4 10041131
21:00+32сз576594 1.7 1004776
13 августа, сб
сб1300:00+31зсз346746 0.0 1003537
03:00+31з237432 0.1 1002490
06:00+30зсз127862 0.2 1003240
09:00+32ююз226635 0.3 1003891
12:00+35з1150100 0.0 10021764
15:00+33зсз885889 0.6 10011006
18:00+33зсз656015 0.4 10001037
21:00+32зсз2165100 0.4 1003390
14 августа, вс
вс1400:00+31ююв116592 0.3 1002284
03:00+31ю237096 0.3 1001306
06:00+30юз2372100 0.2 1002178
09:00+32юв335887 0.5 1003724
12:00+35юз225092 0.0 10021350
15:00+37зсз6447100 0.0 10001827
18:00+33зсз5561100 4.8 1002887
21:00+32зсз666298 6.2 1004716
15 августа, пн
пн1500:00+32вюв116494 0.0 1002340
03:00+31зсз227057 0.0 1002313
06:00+31вюв237282 0.0 1003205
09:00+32ююв226388 0.0 1004811
12:00+35зюз324899 0.0 10041724
15:00+35з975689 0.1 10021274
18:00+33зсз775854 0.6 10031172
21:00+32сз465982 3.6 1005774
16 августа, вт
вт1600:00+32юв23616 0.1 1004291
03:00+31ю236950 0.1 1003190
06:00+30ююв126976 0.0 100497
09:00+32юв215913 0.0 1004569
12:00+36сз34416 0.0 10031909
15:00+35з97506 0.0 10011278
18:00+32зсз5757100 4.0 1003595
21:00+31юв5562100 7.0 1004541